[[{"header":{"parameterUnit":"m.s-1","parameterCategory":1,"la1":30.2991,"la2":30.254,"lo1":-89.0895,"lo2":-89.0444,"dy":0.0017,"dx":0.0017,"nx":28,"ny":28,"refTime":"2024-06-26T03:00:00:Z","depth":0,"parameterNumber":2,"parameterNumberName":"U-component_of_WINDS"},"data":[0,0,0,0,0,0,0,0,0,0,0,0,0,0,0,0,0,0,0,0,0,0,0,0,0,0,0,0,0,0,0,0,0,0,0,0,0,0,0,0,0,0,0,0,0,0,0,0,0,0,0,0,0,0,0,0,0,0,3.7013,3.7015,0,3.7203,3.7205,3.7207,3.7188,3.7185,3.7182,3.7179,3.7378,3.7386,3.7394,0,0,0,0,0,0,0,0,0,0,0,0,0,3.6638,3.6645,3.7013,3.7015,3.7018,3.7202,3.7205,3.7207,3.7189,3.7185,3.7181,3.7178,3.7376,3.7385,3.7395,0,0,0,0,0,0,0,0,0,0,0,0,0,3.6811,3.6647,3.7012,3.703,3.7034,3.7202,3.7205,3.7208,3.7189,3.7185,3.718,3.7176,3.7373,3.7384,3.7396,3.756,0,0,3.7433,3.7439,0,0,0,0,0,0,0,0,3.6802,3.6825,3.7025,3.7029,3.7034,3.7167,3.7145,3.7326,3.7191,3.7131,3.7179,3.7174,3.7312,3.7329,3.7374,3.7569,3.7578,3.7434,3.7442,3.7447,3.745,0,0,0,0,0,0,0,3.679,3.6817,3.7088,3.7028,3.7033,3.703,3.705,3.718,3.7244,3.7135,3.7134,3.7157,3.7313,3.7363,3.7379,3.7581,3.7434,3.7445,3.7452,3.7457,3.7919,3.7924,0,0,0,0,0,0,3.6773,3.6807,3.7082,3.7094,3.6904,3.704,3.7062,3.7129,3.7243,3.7256,3.7161,3.7155,3.7344,3.7365,3.7386,3.7585,3.7447,3.7458,3.7465,3.7914,3.792,3.7925,0,0,0,0,0,0,3.6765,3.6797,3.7074,3.695,3.6985,3.7051,3.7126,3.7135,3.7184,3.7261,3.7273,3.7199,3.7342,3.7369,3.7516,3.7591,3.7464,3.7475,3.7908,3.7916,3.7923,3.7984,0,0,0,0,0,0,3.6754,3.6795,3.6857,3.6952,3.6992,3.7201,3.7131,3.7142,3.7204,3.7199,3.7301,3.7313,3.734,3.7498,3.7528,3.7606,3.7484,3.7902,3.7911,3.792,3.7975,3.7992,3.8007,0,0,0,0,0,3.6741,3.6868,3.686,3.6894,3.7071,3.7205,3.7228,3.7256,3.721,3.7274,3.7323,3.731,3.7578,3.7514,3.7547,3.7629,3.7897,3.7909,3.792,3.7968,3.7989,3.8006,0,0,0,0,0,0,3.6783,3.6881,3.6873,3.7035,3.7112,3.7202,3.7283,3.7277,3.737,3.7361,3.7392,3.7415,3.7564,3.7611,3.7538,3.7793,3.7732,3.775,3.7757,3.7777,3.7793,3.7779,3.7494,0,0,0,0,0,3.681,3.691,3.6991,3.7125,3.7164,3.7217,3.7276,3.729,3.7372,3.7405,3.7465,3.7546,3.7648,3.7715,3.7814,3.7981,3.8003,3.8054,3.807,3.8083,3.8099,3.819,3.8214,3.7962,3.7962,3.7962,0,0,3.6869,3.6935,3.6997,3.7135,3.7197,3.73,3.7245,3.7357,3.7434,3.7423,3.7565,3.7612,3.7704,3.7862,3.7935,3.7906,3.8173,3.8097,3.8106,3.8116,3.8204,3.8228,3.8249,3.797,3.7969,3.7967,0,0,3.7029,3.7089,3.7207,3.7269,3.7361,3.7395,3.7423,3.7515,3.7545,3.7687,3.7681,3.7773,3.7949,3.8015,3.8071,3.8254,3.8245,3.8285,3.8368,3.8457,3.8477,3.8495,3.856,3.8583,3.8301,3.8301,3.8301,0,3.7092,3.7246,3.7269,3.7382,3.7443,3.7435,3.7555,3.7614,3.7735,3.7778,3.7744,3.7963,3.8024,3.8197,3.8241,3.8287,3.8321,3.8274,3.8472,3.849,3.8507,3.8569,3.8594,3.8305,3.8305,3.8304,3.8304,0,3.7318,3.7425,3.7509,3.7623,3.7694,3.781,3.7852,3.7921,3.7928,3.7965,3.8111,3.8184,3.8297,3.8338,3.8348,3.8513,3.8492,3.8464,3.8403,3.8535,3.8594,3.8618,3.8311,3.831,3.8308,3.8307,0,0,3.7512,3.7635,3.7666,3.7717,3.7817,3.7901,3.8016,3.8124,3.8183,3.8266,3.8364,3.8511,3.8486,3.855,3.8566,3.8644,3.8784,3.8607,3.861,3.8638,3.897,3.899,3.9018,3.8777,3.8782,3.8786,3.8962,0,3.7682,3.7885,3.7908,3.8089,3.8188,3.8181,3.8281,3.8354,3.8392,3.8482,3.8524,3.8628,3.8587,3.8625,3.8702,3.875,3.8851,3.8738,3.887,3.8875,3.8848,3.9049,3.9071,3.9234,3.8986,3.899,3.8992,0,3.7909,3.7996,3.8186,3.827,3.8313,3.8403,3.8503,3.8589,3.8671,3.8693,3.8763,3.8769,3.8889,3.8821,3.8987,3.891,3.8965,3.8997,3.9004,3.9018,3.8942,3.9069,3.9287,3.9312,3.9029,3.9026,3.9024,0,3.8032,3.8196,3.8331,3.8375,3.8477,3.854,3.8586,3.8663,3.8726,3.8814,3.8855,3.8957,3.9013,3.9091,3.9125,3.9072,3.9289,3.9224,3.9311,3.931,3.9358,3.9355,3.9589,3.9393,3.9392,3.9392,3.9391,0,3.822,3.8337,3.8387,3.847,3.86,3.8626,3.8755,3.8798,3.8867,3.8958,3.8958,3.9045,3.9083,3.9176,3.9202,3.9335,3.9361,3.9383,3.9389,3.9383,3.9381,3.9421,3.9411,3.9398,3.9397,3.9396,3.9394,0,3.838,3.8418,3.8565,3.8648,3.8672,3.8764,3.8836,3.8917,3.8952,3.9069,3.9098,3.9154,3.9263,3.9303,3.9437,3.9454,3.9609,3.9605,3.9581,3.9582,3.9667,3.9659,3.9936,3.9973,3.9751,3.9753,3.9755,0,3.8499,3.8588,3.868,3.874,3.8788,3.8885,3.8949,3.8977,3.9043,3.9142,3.9211,3.9319,3.9406,3.9581,3.9635,3.9737,3.9736,3.9826,3.9752,3.9743,3.9738,3.9732,3.9741,3.984,3.9842,3.9844,3.9846,0,3.8705,3.8718,3.8809,3.8905,3.898,3.9059,3.9134,3.9184,3.9224,3.9299,3.9408,3.9476,3.9611,3.9718,3.9822,3.987,3.9866,3.9868,3.9894,3.989,3.9872,3.9883,3.9619,3.9862,3.9861,3.9859,3.9859,3.9858,3.8848,3.8926,3.9003,3.9103,3.9162,3.9233,3.9312,3.9356,3.9448,3.9558,3.9569,3.9688,3.9766,3.9905,3.9958,4.0052,4.0027,4.0065,4.0074,4.0083,4.0089,3.9856,4.0071,4.007,4.007,4.0069,4.0069,0,3.9054,3.9102,3.9194,3.9299,3.9378,3.9363,3.9445,3.9513,3.9616,3.9689,3.9775,3.9901,4.0004,4.0065,4.0169,4.0232,4.0232,4.0259,4.0255,4.0266,4.0105,4.0072,4.0256,4.0256,4.0256,4.0256,4.0256,4.0256,3.9171,3.9302,3.9325,3.9485,3.9533,3.9647,3.9696,3.976,3.9818,3.9958,4.0043,4.0081,4.015,4.0258,4.0352,4.0368,4.0406,4.0435,4.0448,4.0297,4.0277,4.0259,4.0229,4.0443,4.0443,4.0602,4.0603,4.0604]},{"header":{"parameterUnit":"m.s-1","parameterCategory":1,"la1":30.2991,"la2":30.254,"lo1":-89.0895,"lo2":-89.0444,"dy":0.0017,"dx":0.0017,"nx":28,"ny":28,"refTime":"2024-06-26T03:00:00:Z","depth":0,"parameterNumber":3,"parameterNumberName":"V-component_of_WINDS"},"data":[0,0,0,0,0,0,0,0,0,0,0,0,0,0,0,0,0,0,0,0,0,0,0,0,0,0,0,0,0,0,0,0,0,0,0,0,0,0,0,0,0,0,0,0,0,0,0,0,0,0,0,0,0,0,0,0,0,0,1.4501,1.4501,0,1.4519,1.4519,1.4519,1.4467,1.4465,1.4463,1.4462,1.4484,1.4486,1.4488,0,0,0,0,0,0,0,0,0,0,0,0,0,1.4423,1.4425,1.4501,1.4501,1.4501,1.4519,1.4519,1.4519,1.4467,1.4465,1.4463,1.4461,1.4483,1.4486,1.4488,0,0,0,0,0,0,0,0,0,0,0,0,0,1.4451,1.4425,1.4501,1.4477,1.4475,1.4519,1.4519,1.4519,1.4467,1.4465,1.4462,1.446,1.4482,1.4485,1.4488,1.4557,0,0,1.4498,1.4499,0,0,0,0,0,0,0,0,1.4449,1.4454,1.448,1.4479,1.4477,1.4488,1.45,1.4532,1.4468,1.447,1.4462,1.4459,1.4487,1.449,1.4499,1.4558,1.4559,1.4498,1.45,1.4502,1.4502,0,0,0,0,0,0,0,1.4447,1.4452,1.4508,1.4481,1.4478,1.4466,1.4467,1.4505,1.4492,1.447,1.4466,1.4469,1.4486,1.4496,1.4499,1.4559,1.4498,1.4501,1.4503,1.4504,1.4674,1.4677,0,0,0,0,0,0,1.4448,1.4451,1.4507,1.4508,1.4456,1.447,1.4471,1.4487,1.4492,1.449,1.4471,1.4466,1.4492,1.4495,1.4499,1.458,1.4501,1.4504,1.4506,1.4672,1.4675,1.4678,0,0,0,0,0,0,1.4447,1.4454,1.4506,1.4479,1.4485,1.4474,1.4492,1.4488,1.4498,1.4492,1.449,1.4483,1.449,1.4495,1.4542,1.458,1.4506,1.4509,1.4669,1.4673,1.4676,1.4741,0,0,0,0,0,0,1.4445,1.4453,1.4479,1.448,1.4486,1.4549,1.4494,1.4491,1.4503,1.4498,1.4504,1.4502,1.4488,1.4538,1.4546,1.4583,1.4511,1.4665,1.4671,1.4675,1.4735,1.4746,1.4756,0,0,0,0,0,1.4442,1.4497,1.448,1.4487,1.4517,1.4551,1.4555,1.4537,1.4507,1.4532,1.4528,1.4502,1.4574,1.4543,1.4551,1.459,1.4663,1.4669,1.4675,1.4731,1.4744,1.4756,0,0,0,0,0,0,1.4502,1.4497,1.4478,1.4535,1.4544,1.4542,1.4574,1.4552,1.457,1.4564,1.4542,1.4544,1.4596,1.4597,1.4563,1.4656,1.4614,1.4621,1.4653,1.4666,1.4676,1.4675,1.4514,0,0,0,0,0,1.4521,1.4548,1.4542,1.4593,1.4598,1.4585,1.4599,1.4584,1.4593,1.4597,1.4597,1.4607,1.4632,1.4649,1.4672,1.4735,1.4736,1.4765,1.4776,1.4784,1.4792,1.4825,1.4839,1.4697,1.4697,1.4697,0,0,1.4563,1.4563,1.4581,1.4605,1.461,1.4639,1.4589,1.4622,1.4643,1.4602,1.4647,1.4647,1.4657,1.4713,1.4737,1.4716,1.4831,1.4792,1.4799,1.4801,1.4833,1.4846,1.4858,1.4701,1.4701,1.47,0,0,1.4652,1.4655,1.4697,1.4703,1.4711,1.4702,1.4712,1.4714,1.4712,1.4756,1.4726,1.4751,1.4795,1.4803,1.4813,1.4905,1.4882,1.4913,1.4967,1.5001,1.5012,1.5022,1.5055,1.5067,1.492,1.492,1.492,0,1.4703,1.4744,1.4722,1.4757,1.4768,1.4731,1.4774,1.4781,1.4797,1.4806,1.4781,1.4834,1.4838,1.4896,1.4918,1.4927,1.4939,1.4913,1.5012,1.5021,1.503,1.5062,1.5074,1.4924,1.4924,1.4923,1.4923,0,1.4806,1.4836,1.4869,1.4883,1.4898,1.4937,1.4922,1.494,1.4923,1.4917,1.4963,1.4966,1.4989,1.5001,1.4986,1.5056,1.5043,1.5015,1.4972,1.5048,1.5077,1.5089,1.493,1.4928,1.4927,1.4926,0,0,1.4936,1.4936,1.4949,1.4955,1.496,1.4983,1.502,1.5041,1.5057,1.5069,1.51,1.5137,1.5111,1.5123,1.5108,1.5137,1.521,1.5106,1.5106,1.5126,1.5289,1.531,1.5324,1.5194,1.5196,1.5198,1.5288,0,1.5024,1.5087,1.5068,1.5131,1.5158,1.5123,1.5155,1.5163,1.5158,1.518,1.5175,1.5202,1.5166,1.5172,1.5199,1.5196,1.5243,1.5189,1.5224,1.5226,1.5224,1.5339,1.5362,1.5446,1.5299,1.5301,1.5302,0,1.5137,1.5151,1.5217,1.5218,1.5228,1.5258,1.5275,1.5297,1.5305,1.5299,1.5311,1.529,1.5328,1.5283,1.5335,1.5299,1.5312,1.5312,1.5315,1.5318,1.5269,1.5347,1.5473,1.5486,1.532,1.5319,1.5318,0,1.5225,1.5261,1.5305,1.5312,1.5313,1.5335,1.5336,1.5341,1.5355,1.5371,1.5379,1.5399,1.5411,1.5427,1.5412,1.5381,1.5466,1.5421,1.5463,1.5464,1.5484,1.5483,1.5615,1.5491,1.5491,1.5491,1.549,0,1.5327,1.5369,1.5345,1.5372,1.5418,1.5396,1.5442,1.544,1.5445,1.5472,1.5442,1.5468,1.5447,1.5471,1.546,1.5505,1.551,1.5507,1.5504,1.551,1.5511,1.5519,1.5513,1.5494,1.5493,1.5493,1.5492,0,1.5433,1.5419,1.5465,1.5462,1.5462,1.5497,1.5494,1.552,1.5512,1.5547,1.5553,1.5542,1.5569,1.5556,1.5584,1.5577,1.5634,1.5623,1.5632,1.5629,1.5672,1.5669,1.5815,1.5833,1.5697,1.5699,1.57,0,1.55,1.5531,1.5531,1.5546,1.555,1.5575,1.5588,1.5567,1.5582,1.5593,1.5618,1.5642,1.566,1.5705,1.57,1.5722,1.5711,1.576,1.5714,1.5719,1.5712,1.5711,1.5714,1.577,1.5772,1.5773,1.5774,0,1.5619,1.561,1.563,1.5647,1.5664,1.5677,1.5687,1.5702,1.5681,1.57,1.5726,1.5741,1.5769,1.5794,1.5812,1.5815,1.5792,1.5789,1.58,1.5807,1.5811,1.581,1.5658,1.5786,1.5785,1.5784,1.5783,1.5783,1.5708,1.5734,1.5737,1.5761,1.5766,1.5777,1.58,1.5795,1.5816,1.5837,1.5824,1.5855,1.5862,1.5884,1.589,1.5915,1.5895,1.5912,1.5916,1.592,1.5926,1.5806,1.5918,1.5918,1.5918,1.5917,1.5917,0,1.5826,1.5826,1.5847,1.5863,1.5881,1.5856,1.5866,1.5883,1.5911,1.5919,1.5937,1.5968,1.5991,1.5988,1.6009,1.603,1.602,1.6037,1.6035,1.6036,1.5942,1.5931,1.6044,1.6044,1.6044,1.6044,1.6044,1.6044,1.5889,1.5932,1.5923,1.5969,1.5969,1.5999,1.6007,1.6017,1.6023,1.6058,1.6077,1.6074,1.6077,1.6099,1.6119,1.6118,1.6128,1.6148,1.6143,1.6056,1.6043,1.6031,1.602,1.615,1.6151,1.6235,1.6236,1.6236]}]]